| time (UTC) | temp F | wind direction | speed knots | gust knots | rain 1hr in | rain 24hr in | rain mn in | humidity % | barometer mb |
| 20260504100528 | 42 | 12 | 0.0 | 0.0 | 0.00 | 0.10 | 0.00 | 68 | 1009.4 |
| 20260504081226 | 43 | 355 | 0.0 | 0.0 | 0.00 | 0.10 | 0.00 | 70 | 1009.6 |
| 20260504080240 | 43 | 355 | 0.9 | 3.5 | 0.00 | 0.10 | 0.00 | 68 | 1009.8 |
| 20260504070226 | 40 | 5 | 0.0 | 1.7 | 0.00 | 0.10 | 0.00 | 80 | 1009.9 |
| 20260504050731 | 40 | 0 | 0.0 | 0.0 | 0.00 | 0.10 | 0.10 | 79 | 1010.6 |
| 20260504045737 | 41 | 26 | 0.0 | 0.9 | 0.00 | 0.10 | 0.10 | 79 | 1010.7 |
| 20260504044705 | 40 | 5 | 0.0 | 0.9 | 0.00 | 0.10 | 0.10 | 81 | 1010.7 |
| 20260504043717 | 39 | 290 | 0.0 | 1.7 | 0.00 | 0.10 | 0.10 | 84 | 1010.8 |
| 20260504042710 | 39 | 32 | 0.0 | 1.7 | 0.00 | 0.10 | 0.10 | 82 | 1010.9 |
| 20260504041647 | 41 | 27 | 0.0 | 2.6 | 0.00 | 0.10 | 0.10 | 80 | 1010.9 |
| 20260504040642 | 40 | 325 | 0.0 | 0.0 | 0.00 | 0.10 | 0.10 | 81 | 1010.8 |
| 20260504034459 | 41 | 10 | 0.0 | 1.7 | 0.00 | 0.10 | 0.10 | 82 | 1011.0 |
| 20260504033444 | 41 | 355 | 0.0 | 0.0 | 0.00 | 0.10 | 0.10 | 82 | 1011.0 |
| 20260504030140 | 45 | 351 | 0.0 | 1.7 | 0.00 | 0.10 | 0.10 | 73 | 1011.1 |
| 20260504025158 | 45 | 343 | 0.0 | 0.9 | 0.00 | 0.10 | 0.10 | 71 | 1010.9 |
| 20260504024146 | 45 | 343 | 0.0 | 1.7 | 0.00 | 0.10 | 0.10 | 71 | 1010.9 |
| 20260504023205 | 45 | 343 | 0.0 | 0.0 | 0.00 | 0.10 | 0.10 | 71 | 1010.8 |
| 20260504022131 | 44 | 343 | 0.0 | 1.7 | 0.00 | 0.10 | 0.10 | 74 | 1010.8 |
| 20260504020015 | 48 | 325 | 0.0 | 0.0 | 0.00 | 0.10 | 0.10 | 67 | 1010.8 |
| 20260504013900 | 51 | 256 | 0.0 | 0.0 | 0.00 | 0.10 | 0.10 | 59 | 1010.8 |
| 20260504012924 | 53 | 256 | 0.0 | 0.0 | 0.00 | 0.10 | 0.10 | 55 | 1011.0 |
| 20260504011917 | 55 | 258 | 0.9 | 6.1 | 0.00 | 0.10 | 0.10 | 51 | 1011.0 |
| 20260504005743 | 57 | 279 | 1.7 | 7.0 | 0.00 | 0.10 | 0.10 | 48 | 1011.3 |
| 20260504004754 | 57 | 355 | 2.6 | 8.7 | 0.00 | 0.10 | 0.10 | 49 | 1011.4 |
| 20260504003744 | 57 | 315 | 1.7 | 9.6 | 0.00 | 0.10 | 0.10 | 48 | 1011.4 |
| 20260504002805 | 57 | 319 | 1.7 | 9.6 | 0.00 | 0.10 | 0.10 | 49 | 1011.5 |
| 20260504000628 | 58 | 315 | 2.6 | 9.6 | 0.00 | 0.10 | 0.10 | 45 | 1011.7 |
| 20260503235620 | 58 | 343 | 1.7 | 10.4 | 0.00 | 0.10 | 0.10 | 48 | 1011.9 |
| 20260503232325 | 57 | 219 | 2.6 | 8.7 | 0.00 | 0.10 | 0.10 | 53 | 1012.0 |
| 20260503231253 | 57 | 274 | 3.5 | 8.7 | 0.00 | 0.10 | 0.10 | 56 | 1012.1 |
| 20260503225104 | 55 | 221 | 0.0 | 5.2 | 0.00 | 0.10 | 0.10 | 71 | 1012.4 |
| 20260503224128 | 54 | 204 | 0.0 | 0.0 | 0.00 | 0.10 | 0.10 | 76 | 1012.5 |
| 20260503223142 | 53 | 191 | 0.0 | 6.1 | 0.00 | 0.10 | 0.10 | 74 | 1012.7 |
| 20260503222153 | 52 | 215 | 0.0 | 0.0 | 0.00 | 0.10 | 0.10 | 81 | 1013.1 |
| 20260503221129 | 51 | 199 | 0.0 | 0.0 | 0.00 | 0.10 | 0.10 | 82 | 1013.4 |
| 20260503220152 | 51 | 213 | 0.0 | 0.9 | 0.00 | 0.10 | 0.10 | 82 | 1013.3 |
| 20260503214045 | 47 | 37 | 0.0 | 0.0 | 0.16 | 0.10 | 0.10 | 90 | 1013.8 |
| 20260503213046 | 46 | 273 | 0.0 | 2.6 | 0.12 | 0.09 | 0.09 | 86 | 1014.4 |
| 20260503212031 | 47 | 291 | 0.9 | 7.8 | 0.06 | 0.06 | 0.06 | 85 | 1014.4 |
| 20260503204813 | 50 | 69 | 2.6 | 9.6 | 0.00 | 0.03 | 0.03 | 70 | 1013.8 |
| 20260503203829 | 51 | 36 | 2.6 | 9.6 | 0.00 | 0.03 | 0.03 | 66 | 1014.1 |
| 20260503202822 | 53 | 355 | 0.0 | 3.5 | 0.00 | 0.03 | 0.03 | 63 | 1014.1 |
| 20260503201820 | 52 | 270 | 0.0 | 0.0 | 0.00 | 0.03 | 0.03 | 67 | 1014.3 |
| 20260503200748 | 50 | 257 | 4.3 | 0.0 | 0.00 | 0.03 | 0.03 | 69 | 1014.4 |
| 20260503195741 | 55 | 216 | 6.1 | 13.0 | 0.00 | 0.03 | 0.03 | 58 | 1014.5 |
| 20260503194759 | 57 | 223 | 1.7 | 8.7 | 0.00 | 0.03 | 0.03 | 56 | 1014.0 |
| 20260503192717 | 54 | 279 | 0.0 | 4.3 | 0.05 | 0.03 | 0.03 | 65 | 1014.2 |
| 20260503191710 | 51 | 25 | 1.7 | 11.3 | 0.21 | 0.02 | 0.03 | 71 | 1014.5 |
| 20260503185609 | 56 | 311 | 2.6 | 10.4 | 0.00 | 0.01 | 0.01 | 61 | 1014.7 |
| 20260503184606 | 54 | 68 | 0.0 | 1.7 | 0.00 | 0.01 | 0.01 | 60 | 1014.8 |
| 20260503183538 | 53 | 5 | 1.7 | 7.8 | 0.00 | 0.01 | 0.01 | 59 | 1015.0 |
| 20260503182537 | 55 | 24 | 4.3 | 13.0 | 0.00 | 0.01 | 0.01 | 54 | 1015.1 |
| 20260503181531 | 56 | 182 | 2.6 | 13.0 | 0.00 | 0.01 | 0.01 | 51 | 1015.1 |
| 20260503174259 | 54 | 242 | 0.9 | 8.7 | 0.00 | 0.01 | 0.01 | 55 | 1015.7 |
| 20260503173300 | 54 | 148 | 0.9 | 6.1 | 0.00 | 0.01 | 0.01 | 54 | 1015.6 |
| 20260503172247 | 54 | 50 | 0.9 | 7.0 | 0.00 | 0.01 | 0.01 | 54 | 1015.8 |
| 20260503170137 | 54 | 223 | 2.6 | 13.0 | 0.00 | 0.01 | 0.01 | 56 | 1015.8 |
| 20260503150207 | 51 | 229 | 1.7 | 7.8 | 0.00 | 0.01 | 0.01 | 69 | 1016.3 |